DECAYED

STARLINK-30879, 58235 (Decayed)

Orbit data source: Space-Track

STARLINK-30879, 58235 was a payload satellite owned by SpaceX/Seattle (US) in LEO that was launched on Wed, 08 Nov 2023 UTC via an FALCON 9 launch vehicle from the Air Force Eastern Test Range (AFETR). Payload-class satellites include a variety of spacecraft equipped with specific instruments for various scientific and technological missions. These include communications satellites like Starlink; space stations such as the ISS; scientific satellites like the Hubble; Earth observation satellites from companies like Planet Labs, Umbra, and HawkEye 360; GPS; miniature CubeSats for education and research; and military/defense satellites.

Not visible in the next 10 days
Identifier
58235, 2023-171F
Orbit
Decayed
Country
Flag of USUS
Related business
Manufacturer
SpaceX/Seattle
Mission
Decayed Commercial Communications
Bus & Motor
STARLINK V2M, Unknown motor
Mass
730 kg wet, ~700 kg dry
Launch date (UTC)
2023-11-08 (3 years ago)
Launch vehicle
FALCON 9
Launch site
Air Force Eastern Test Range (AFETR)
Object type
Payload
Rocket body
Debris
Shape & HBR
Box + 2 Pan, 17.7 m
Radar Cross Section
33.884 m², Large (>1 m²)

Expand to show TLE details & history
Last TLE update: 9 months ago

TLE from 9 months ago
0 STARLINK-30879
1 58235U 23171F   25260.45481021  .00007679  00000-0  38180-4 0  9990
2 58235  42.9847  28.3840 0030743 346.6993  13.3065 15.81824058105030
Epoch: 2025-09-17T10:54Z
TLE epoch observation values (Epoch: 2025-09-17T10:54:55.602Z)
Latitude
-0.00003°
Longitude
-131.97822°
Altitude
305.002 km
Speed
7.738 km/s
True Right ascension
01h 53m 32s
True Declination
0° 00' 00"
Sunlit
Object was in full shadow at epoch
Visualization orbit readout
Latitude
Unknown
Longitude
Unknown
Altitude
Unknown
Speed
Unknown
Apparent Right ascension
Unknown
Apparent Declination
Unknown
Sunlit
N/A
Visualization observer readout
Local Sidereal Time
21:27:31
Azimuth
Unknown
Elevation
Unknown
Doppler factor
Unknown
Orbital elements
Apogee altitude
347.89 km
Perigee altitude
306.661 km
Semi-major axis
6,705.413 km
Eccentricity
0.00307
Inclination
42.9847°
RAAN
28.384°
Arg. of periapsis
346.6993°
True anomaly
13.38789°
Mean anomaly
13.3065°
Eccentric anomaly
13.34716°
Mean motion
3.9528 °/min
Orbital period
91.07 mins
BSTAR
0.00003818
Loading maneuver chart data...
Computing Atmospheric mass density...
Loading historical data...
Loading historical data...
Loading historical data...
Loading historical data...
Loading historical data...
Loading historical data...
Loading historical data...

Documentation

Showing up to 5 results
|